Time,TemperatureF,DewpointF,PressureIn,WindDirection,WindDirectionDegrees,WindSpeedMPH,WindSpeedGustMPH,Humidity,HourlyPrecipIn,Conditions,Clouds,dailyrainin,SoftwareType,DateUTC
2013-02-21 00:00:00,20.0,-99.9,-100.00,ENE,75,6.0,8.0,-999,0.00,,,0.00,,2013-02-21 06:00:00,
2013-02-21 00:30:00,20.0,-99.9,-100.00,East,85,8.0,10.0,-999,0.00,,,0.00,,2013-02-21 06:30:00,
2013-02-21 01:00:00,20.0,-99.9,-100.00,East,90,5.0,7.0,-999,0.00,,,0.00,,2013-02-21 07:00:00,
2013-02-21 01:22:00,20.0,-99.9,-100.00,East,85,8.0,10.0,-999,0.00,,,0.00,,2013-02-21 07:22:00,
2013-02-21 01:52:00,20.0,-99.9,-100.00,East,90,5.0,7.0,-999,0.00,,,0.00,,2013-02-21 07:52:00,
2013-02-21 03:00:00,18.0,-99.9,-100.00,East,90,3.0,5.0,-999,0.00,,,0.00,,2013-02-21 09:00:00,
2013-02-21 05:30:00,18.0,-99.9,-100.00,NNE,13,6.0,8.0,-999,0.00,,,0.00,,2013-02-21 11:30:00,
2013-02-21 06:00:00,17.0,-99.9,-100.00,NNE,32,6.0,7.0,-999,0.00,,,0.00,,2013-02-21 12:00:00,
2013-02-21 06:30:00,17.0,-99.9,-100.00,NE,37,9.0,11.0,-999,0.00,,,0.00,,2013-02-21 12:30:00,
2013-02-21 06:53:00,17.0,-99.9,-100.00,NNE,32,6.0,7.0,-999,0.00,,,0.00,,2013-02-21 12:53:00,
2013-02-21 07:12:00,17.0,-99.9,-100.00,NE,37,9.0,11.0,-999,0.00,,,0.00,,2013-02-21 13:12:00,
2013-02-21 07:22:00,17.0,-99.9,-100.00,NE,37,9.0,11.0,-999,0.00,,,0.00,,2013-02-21 13:22:00,
2013-02-21 08:02:00,18.0,-99.9,-100.00,ENE,58,9.0,11.0,-999,0.00,,,0.00,,2013-02-21 14:02:00,
2013-02-21 08:11:00,18.0,-99.9,-100.00,ENE,58,9.0,11.0,-999,0.00,,,0.00,,2013-02-21 14:11:00,
2013-02-21 08:22:00,18.0,-99.9,-100.00,ENE,58,9.0,11.0,-999,0.00,,,0.00,,2013-02-21 14:22:00,
2013-02-21 08:32:00,19.0,-99.9,-100.00,ENE,77,7.0,11.0,-999,0.00,,,0.00,,2013-02-21 14:32:00,
2013-02-21 08:42:00,19.0,-99.9,-100.00,ENE,77,7.0,11.0,-999,0.00,,,0.00,,2013-02-21 14:42:00,
2013-02-21 08:52:00,19.0,-99.9,-100.00,ENE,77,7.0,11.0,-999,0.00,,,0.00,,2013-02-21 14:52:00,
2013-02-21 09:02:00,20.0,-99.9,-100.00,ENE,69,12.0,16.0,-999,0.00,,,0.00,,2013-02-21 15:02:00,
2013-02-21 09:12:00,20.0,-99.9,-100.00,ENE,69,12.0,16.0,-999,0.00,,,0.00,,2013-02-21 15:12:00,
2013-02-21 09:22:00,20.0,-99.9,-100.00,ENE,69,12.0,16.0,-999,0.00,,,0.00,,2013-02-21 15:22:00,
2013-02-21 09:32:00,20.0,-99.9,-100.00,East,85,10.0,13.0,-999,0.00,,,0.00,,2013-02-21 15:32:00,
2013-02-21 09:42:00,20.0,-99.9,-100.00,East,85,10.0,13.0,-999,0.00,,,0.00,,2013-02-21 15:42:00,
2013-02-21 09:52:00,20.0,-99.9,-100.00,East,85,10.0,13.0,-999,0.00,,,0.00,,2013-02-21 15:52:00,
2013-02-21 10:00:00,22.0,-99.9,-100.00,East,99,13.0,17.0,-999,0.00,,,0.00,,2013-02-21 16:00:00,
2013-02-21 10:02:00,21.0,-99.9,-100.00,ENE,69,7.0,11.0,-999,0.00,,,0.00,,2013-02-21 16:02:00,
2013-02-21 10:12:00,21.0,-99.9,-100.00,ENE,69,7.0,11.0,-999,0.00,,,0.00,,2013-02-21 16:12:00,
2013-02-21 10:22:00,21.0,-99.9,-100.00,ENE,69,7.0,11.0,-999,0.00,,,0.00,,2013-02-21 16:22:00,
2013-02-21 10:32:00,22.0,-99.9,-100.00,East,99,13.0,17.0,-999,0.00,,,0.00,,2013-02-21 16:32:00,
2013-02-21 10:42:00,22.0,-99.9,-100.00,East,99,13.0,17.0,-999,0.00,,,0.00,,2013-02-21 16:42:00,
2013-02-21 10:52:00,22.0,-99.9,-100.00,East,99,13.0,17.0,-999,0.00,,,0.00,,2013-02-21 16:52:00,
2013-02-21 11:12:00,23.0,-99.9,-100.00,ENE,78,11.0,16.0,-999,0.00,,,0.00,,2013-02-21 17:12:00,
2013-02-21 11:22:00,23.0,-99.9,-100.00,ENE,78,11.0,16.0,-999,0.00,,,0.00,,2013-02-21 17:22:00,
2013-02-21 11:30:00,25.0,-99.9,-100.00,ENE,60,13.0,18.0,-999,0.00,,,0.00,,2013-02-21 17:30:00,
2013-02-21 11:32:00,24.0,-99.9,-100.00,ENE,59,10.0,15.0,-999,0.00,,,0.00,,2013-02-21 17:32:00,
2013-02-21 11:42:00,24.0,-99.9,-100.00,ENE,59,10.0,15.0,-999,0.00,,,0.00,,2013-02-21 17:42:00,
2013-02-21 11:52:00,24.0,-99.9,-100.00,ENE,59,10.0,15.0,-999,0.00,,,0.00,,2013-02-21 17:52:00,
2013-02-21 12:02:00,25.0,-99.9,-100.00,ENE,60,13.0,18.0,-999,0.00,,,0.00,,2013-02-21 18:02:00,
2013-02-21 12:12:00,25.0,-99.9,-100.00,ENE,60,13.0,18.0,-999,0.00,,,0.00,,2013-02-21 18:12:00,
2013-02-21 12:22:00,25.0,-99.9,-100.00,ENE,60,13.0,18.0,-999,0.00,,,0.00,,2013-02-21 18:22:00,
2013-02-21 13:00:00,26.0,-99.9,-100.00,ENE,70,12.0,14.0,-999,0.00,,,0.00,,2013-02-21 19:00:00,
2013-02-21 13:02:00,26.0,-99.9,-100.00,NE,56,11.0,14.0,-999,0.00,,,0.00,,2013-02-21 19:02:00,
2013-02-21 13:12:00,26.0,-99.9,-100.00,NE,56,11.0,14.0,-999,0.00,,,0.00,,2013-02-21 19:12:00,
2013-02-21 13:22:00,26.0,-99.9,-100.00,NE,56,11.0,14.0,-999,0.00,,,0.00,,2013-02-21 19:22:00,
2013-02-21 13:32:00,26.0,-99.9,-100.00,ENE,70,12.0,14.0,-999,0.00,,,0.00,,2013-02-21 19:32:00,
2013-02-21 13:42:00,26.0,-99.9,-100.00,ENE,70,12.0,14.0,-999,0.00,,,0.00,,2013-02-21 19:42:00,
2013-02-21 13:52:00,26.0,-99.9,-100.00,ENE,70,12.0,14.0,-999,0.00,,,0.00,,2013-02-21 19:52:00,
2013-02-21 14:11:00,27.0,-99.9,-100.00,ENE,77,10.0,14.0,-999,0.00,,,-99.99,,2013-02-21 20:11:00,
2013-02-21 14:22:00,27.0,-99.9,-100.00,ENE,77,10.0,14.0,-999,0.00,,,-99.99,,2013-02-21 20:22:00,
2013-02-21 14:32:00,27.0,-99.9,-100.00,ENE,64,13.0,16.0,-999,0.00,,,0.00,,2013-02-21 20:32:00,
2013-02-21 14:42:00,27.0,-99.9,-100.00,ENE,64,13.0,16.0,-999,0.00,,,0.00,,2013-02-21 20:42:00,
2013-02-21 14:53:00,27.0,-99.9,-100.00,ENE,64,13.0,16.0,-999,0.00,,,0.00,,2013-02-21 20:53:00,
2013-02-21 15:02:00,27.0,-99.9,-100.00,ENE,62,13.0,17.0,-999,0.00,,,0.00,,2013-02-21 21:02:00,
2013-02-21 15:12:00,27.0,-99.9,-100.00,ENE,62,13.0,17.0,-999,0.00,,,0.00,,2013-02-21 21:12:00,
2013-02-21 15:22:00,27.0,-99.9,-100.00,ENE,62,13.0,17.0,-999,0.00,,,0.00,,2013-02-21 21:22:00,
2013-02-21 15:32:00,28.0,-99.9,-100.00,ENE,65,15.0,20.0,-999,0.00,,,0.00,,2013-02-21 21:32:00,
2013-02-21 15:42:00,28.0,-99.9,-100.00,ENE,65,15.0,20.0,-999,0.00,,,0.00,,2013-02-21 21:42:00,
2013-02-21 15:52:00,28.0,-99.9,-100.00,ENE,65,15.0,20.0,-999,0.00,,,0.00,,2013-02-21 21:52:00,
2013-02-21 16:02:00,28.0,-99.9,-100.00,ENE,66,14.0,19.0,-999,0.00,,,-99.99,,2013-02-21 22:02:00,
2013-02-21 16:11:00,28.0,-99.9,-100.00,ENE,66,14.0,19.0,-999,0.00,,,-99.99,,2013-02-21 22:11:00,
2013-02-21 16:22:00,28.0,-99.9,-100.00,ENE,66,14.0,19.0,-999,0.00,,,-99.99,,2013-02-21 22:22:00,
2013-02-21 16:32:00,28.0,-99.9,-100.00,ENE,60,18.0,23.0,-999,0.00,,,0.00,,2013-02-21 22:32:00,
2013-02-21 16:42:00,28.0,-99.9,-100.00,ENE,60,18.0,23.0,-999,0.00,,,0.00,,2013-02-21 22:42:00,
2013-02-21 16:52:00,28.0,-99.9,-100.00,ENE,60,18.0,23.0,-999,0.00,,,0.00,,2013-02-21 22:52:00,
2013-02-21 17:01:00,28.0,-99.9,-100.00,East,80,10.0,14.0,-999,0.00,,,0.00,,2013-02-21 23:01:00,
2013-02-21 17:11:00,28.0,-99.9,-100.00,East,80,10.0,14.0,-999,0.00,,,0.00,,2013-02-21 23:11:00,
2013-02-21 17:22:00,28.0,-99.9,-100.00,East,80,10.0,14.0,-999,0.00,,,0.00,,2013-02-21 23:22:00,
2013-02-21 17:32:00,28.0,-99.9,-100.00,ENE,59,14.0,17.0,-999,0.00,,,0.00,,2013-02-21 23:32:00,
2013-02-21 17:42:00,28.0,-99.9,-100.00,ENE,59,14.0,17.0,-999,0.00,,,0.00,,2013-02-21 23:42:00,
2013-02-21 17:53:00,28.0,-99.9,-100.00,ENE,59,14.0,17.0,-999,0.00,,,0.00,,2013-02-21 23:53:00,
2013-02-21 18:02:00,28.0,-99.9,-100.00,ENE,65,15.0,20.0,-999,0.00,,,0.00,,2013-02-22 00:02:00,
2013-02-21 18:11:00,28.0,-99.9,-100.00,ENE,65,15.0,20.0,-999,0.00,,,0.00,,2013-02-22 00:11:00,
2013-02-21 18:22:00,28.0,-99.9,-100.00,ENE,65,15.0,20.0,-999,0.00,,,0.00,,2013-02-22 00:22:00,
2013-02-21 18:30:00,29.0,-99.9,-100.00,ENE,59,15.0,20.0,-999,0.00,,,0.00,,2013-02-22 00:30:00,
2013-02-21 18:32:00,28.0,-99.9,-100.00,NE,54,18.0,22.0,-999,0.00,,,0.00,,2013-02-22 00:32:00,
2013-02-21 18:42:00,28.0,-99.9,-100.00,NE,54,18.0,22.0,-999,0.00,,,0.00,,2013-02-22 00:42:00,
2013-02-21 18:52:00,28.0,-99.9,-100.00,NE,54,18.0,22.0,-999,0.00,,,0.00,,2013-02-22 00:52:00,
2013-02-21 19:01:00,29.0,-99.9,-100.00,ENE,59,15.0,20.0,-999,0.00,,,0.00,,2013-02-22 01:01:00,
2013-02-21 19:11:00,29.0,-99.9,-100.00,ENE,59,15.0,20.0,-999,0.00,,,0.00,,2013-02-22 01:11:00,
2013-02-21 19:22:00,29.0,-99.9,-100.00,ENE,59,15.0,20.0,-999,0.00,,,0.00,,2013-02-22 01:22:00,
2013-02-21 19:30:00,28.0,-99.9,-100.00,ENE,60,19.0,23.0,-999,0.00,,,0.00,,2013-02-22 01:30:00,
2013-02-21 20:02:00,28.0,-99.9,-100.00,ENE,60,19.0,23.0,-999,0.00,,,0.00,,2013-02-22 02:02:00,
2013-02-21 20:11:00,28.0,-99.9,-100.00,ENE,60,19.0,23.0,-999,0.00,,,0.00,,2013-02-22 02:11:00,
2013-02-21 20:22:00,28.0,-99.9,-100.00,ENE,60,19.0,23.0,-999,0.00,,,0.00,,2013-02-22 02:22:00,
2013-02-21 20:42:00,28.0,-99.9,-100.00,ENE,68,15.0,20.0,-999,0.00,,,0.00,,2013-02-22 02:42:00,
2013-02-21 20:52:00,28.0,-99.9,-100.00,ENE,68,15.0,20.0,-999,0.00,,,0.00,,2013-02-22 02:52:00,
2013-02-21 21:02:00,27.0,-99.9,-100.00,ENE,70,16.0,20.0,-999,0.00,,,0.00,,2013-02-22 03:02:00,
2013-02-21 21:11:00,27.0,-99.9,-100.00,ENE,70,16.0,20.0,-999,0.00,,,0.00,,2013-02-22 03:11:00,
2013-02-21 21:22:00,27.0,-99.9,-100.00,ENE,70,16.0,20.0,-999,0.00,,,0.00,,2013-02-22 03:22:00,
2013-02-21 21:32:00,27.0,-99.9,-100.00,ENE,72,15.0,20.0,-999,0.00,,,0.00,,2013-02-22 03:32:00,
2013-02-21 21:42:00,27.0,-99.9,-100.00,ENE,72,15.0,20.0,-999,0.00,,,0.00,,2013-02-22 03:42:00,
2013-02-21 21:52:00,27.0,-99.9,-100.00,ENE,72,15.0,20.0,-999,0.00,,,0.00,,2013-02-22 03:52:00,
2013-02-21 22:02:00,26.0,-99.9,-100.00,ENE,66,21.0,27.0,-999,0.00,,,0.00,,2013-02-22 04:02:00,
2013-02-21 22:11:00,26.0,-99.9,-100.00,ENE,66,21.0,27.0,-999,0.00,,,0.00,,2013-02-22 04:11:00,
2013-02-21 22:22:00,26.0,-99.9,-100.00,ENE,66,21.0,27.0,-999,0.00,,,0.00,,2013-02-22 04:22:00,
2013-02-21 22:30:00,25.0,-99.9,-100.00,ENE,65,11.0,15.0,-999,0.00,,,0.00,,2013-02-22 04:30:00,
2013-02-21 22:32:00,25.0,-99.9,-100.00,East,79,13.0,19.0,-999,0.00,,,0.00,,2013-02-22 04:32:00,
2013-02-21 22:42:00,25.0,-99.9,-100.00,East,79,13.0,19.0,-999,0.00,,,0.00,,2013-02-22 04:42:00,
2013-02-21 22:52:00,25.0,-99.9,-100.00,East,79,13.0,19.0,-999,0.00,,,0.00,,2013-02-22 04:52:00,
2013-02-21 23:02:00,25.0,-99.9,-100.00,ENE,65,11.0,15.0,-999,0.00,,,0.00,,2013-02-22 05:02:00,
2013-02-21 23:12:00,25.0,-99.9,-100.00,ENE,65,11.0,15.0,-999,0.00,,,0.00,,2013-02-22 05:12:00,
2013-02-21 23:22:00,25.0,-99.9,-100.00,ENE,65,11.0,15.0,-999,0.00,,,0.00,,2013-02-22 05:22:00,
2013-02-21 23:42:00,25.0,-99.9,-100.00,ENE,68,9.0,12.0,-999,0.00,,,0.00,,2013-02-22 05:42:00,
2013-02-21 23:52:00,25.0,-99.9,-100.00,ENE,68,9.0,12.0,-999,0.00,,,0.00,,2013-02-22 05:52:00,